Regional Weather Roundup
Issued by NWS Little Rock, AR

Home | Current Version | Previous Version | Text Only | Print | Product List | Glossary On
Versions: 1 2 3 4 5 6 7 8 9 10 11 12 13 14 15 16 17 18 19 20 21 22 23 24 25 26 27 28 29 30 31 32 33 34 35 36 37 38 39 40 41 42 43 44 45 46 47 48 49 50
000
ASUS44 KLZK 251605
RWRLZK

WEATHER ROUNDUP FOR ARKANSAS
NATIONAL WEATHER SERVICE LITTLE ROCK AR
1100 AM CDT MON JUL 25 2016

NOTE: "FAIR" INDICATES FEW OR NO CLOUDS BELOW 12,000 FEET WITH NO
SIGNIFICANT WEATHER AND/OR OBSTRUCTIONS TO VISIBILITY.

ARZ001-003-010-029-251700-
NORTHWEST ARKANSAS

CITY           SKY/WX    TMP DP  RH WIND       PRES   REMARKS
FAYETTEVILLE   TSTM      74  74 100 N7G16     30.11R VSB 1
FORT SMITH     PTSUNNY   88  71  57 CALM      30.02R HX  94
HARRISON       CLOUDY    77  73  87 NE7       30.11R
BENTONVILLE    CLOUDY    75  72  88 NE7       30.12R
ROGERS         CLOUDY    76  71  85 NE13G20   30.13R
SILOAM SPGS    CLOUDY    75  64  69 NE6       30.10R
HIGHFILL       CLOUDY    79  76  90 N12       30.10R THUNDER
SPRINGDALE     TSTM      79  73  83 NE12      30.11R
$$

ARZ004-005-016-251700-
NORTH CENTRAL ARKANSAS

CITY           SKY/WX    TMP DP  RH WIND       PRES   REMARKS
BATESVILLE     CLOUDY    84  73  70 CALM      30.03S HX  91
FLIPPIN        CLOUDY    81  72  74 N7        30.04S
MTN HOME       PTSUNNY   81  74  79 VRB3      30.06S HX  86
$$

ARZ040-041-251700-
WEST CENTRAL ARKANSAS

CITY           SKY/WX    TMP DP  RH WIND       PRES   REMARKS
MENA           PTSUNNY   88  73  62 CALM      30.04F HX  96
MOUNT IDA      SUNNY     87  74  64 VRB3      30.02R HX  95
$$

ARZ009-017-025-026-028-251700-
NORTHEAST ARKANSAS

CITY           SKY/WX    TMP DP  RH WIND       PRES   REMARKS
CORNING          N/A     86  81  84 W9        30.02S HX 102
JONESBORO      PTSUNNY   87  76  69 SW8       30.01S HX  97
NEWPORT        PTSUNNY   90  74  59 SW7       30.02F HX  99
WALNUT RIDGE   PTSUNNY   82  75  78 W6        30.01S HX  89
BLYTHEVILLE    MOSUNNY   89  79  72 S8        30.02S HX 104
NW BLYTHEVILLE PTSUNNY   90  79  70 SW12      30.02S HX 105
$$

ARZ022-023-033-042-044-251700-
CENTRAL ARKANSAS

CITY           SKY/WX    TMP DP  RH WIND       PRES   REMARKS
LITTLE ROCK    MOSUNNY   90  71  53 S6        30.01S HX  96
N LITTLE ROCK    N/A     87  72  60 W3        29.99S HX  93
JACKSONVILLE   SUNNY     89  73  58 VRB6      30.01S HX  96
SEARCY         CLOUDY    87  75  67 S3        30.03S HX  96
HOT SPRINGS    SUNNY     86  72  62 SW5       30.03S HX  92
RUSSELLVILLE   CLOUDY    80  73  79 CALM      30.02R
$$

ARZ036-251700-
EAST ARKANSAS

CITY           SKY/WX    TMP DP  RH WIND       PRES   REMARKS
WEST MEMPHIS   SUNNY     87  77  72 S3        30.02R HX  99
$$

ARZ050-053-066-070-073-251700-
SOUTHWEST ARKANSAS

CITY           SKY/WX    TMP DP  RH WIND       PRES   REMARKS
CAMDEN         MOSUNNY   90  72  55 E7        30.01S HX  96
TEXARKANA      MOSUNNY   86  74  67 CALM      30.00F HX  94
EL DORADO      SUNNY     87  72  60 E8        30.02S HX  93
DE QUEEN       SUNNY     86  76  71 NE3       29.99S HX  96
$$

ARZ056-057-069-251700-
SOUTHEAST ARKANSAS

CITY           SKY/WX    TMP DP  RH WIND       PRES   REMARKS
PINE BLUFF     PTSUNNY   86  72  62 SE5       30.02S HX  92
STUTTGART      SUNNY     88  73  62 S5        30.03R HX  96
MONTICELLO     MOSUNNY   88  73  61 CALM      30.02S HX  95

$$





USA.gov is the U.S. government's official web portal to all federal, state and local government web resources and services.